Dewpoint
2 2 1 1 1 1 -0 -0 2 1 -1 2 2 3 0 -4 -3 -0 1 2 4 2 -0 -2 -2 -3 -4 -5 -5 -2 -3 -2 2 -1 -1 -2 -3 -2 -1 2 1 2 4 1
2 2 2 1 1 1 0 -0 1 0 -0 1 2 0 -0 -3 -1 -2 2 3 3 3 3 1 -2 -3 -5 -5 -3 -3 -1 -1 2 -0 -1 -1 -1 -2 -2 0 2 3 7 1
-3 2 1 2 1 1 0 -0 1 2 2 -3 -1 -0 0 -1 -2 -3 0 1 2 4 4 1 -0 -2 -1 -2 -4 -3 -2 -2 -1 1 -2 -4 -0 -1 -1 0 4 2 3 -1
-5 -0 1 2 2 0 0 1 1 1 2 1 -2 -2 -3 -1 -0 -1 -1 2 3 3 4 3 2 -1 1 0 -0 -3 -1 -1 -1 -4 -6 -6 -5 -5 -1 0 0 1 0 -2
-3 -3 1 2 2 0 0 0 1 0 -2 -1 -1 -0 0 -2 -2 -2 -1 2 2 2 2 1 2 3 3 -1 2 -0 -1 -1 0 -0 -3 -3 -3 -4 -4 -2 -3 -1 -1 -2
-1 -3 -2 2 1 0 -0 0 -0 -2 -2 -1 -0 1 -1 -1 -2 -3 -5 -3 -2 2 2 2 2 2 1 0 3 3 2 1 1 -0 -0 -1 3 1 -2 -2 -1 -1 -0 -3
-1 -2 -4 -0 1 0 -0 -1 0 0 -0 -0 -1 -2 -3 -3 -3 -0 -3 -4 -0 -1 1 -0 -0 1 3 2 -0 1 4 3 3 3 5 8 -3 -2 -3 -2 -2 -3 -2 -4
-0 -1 -4 -2 1 0 0 -1 0 -2 2 -1 -2 -2 -3 -4 -3 -2 -2 -0 -1 -1 -1 -0 0 1 1 3 3 3 2 3 5 9 4 -1 -1 -2 -1 -0 -2 -4 -4 -4
-0 -1 -4 -3 0 0 0 -0 -1 0 1 -1 -4 -1 -3 -1 -0 1 -1 -2 1 1 4 4 4 -2 -2 3 4 1 2 3 6 4 5 7 -2 -3 -3 -3 2 -5 -4 -3
-0 -1 -3 -2 0 0 0 -0 -1 -0 -2 -4 -3 0 -0 -3 -2 1 -1 1 2 1 5 8 4 2 -3 2 7 6 5 5 7 6 7 3 -1 -3 -3 2 2 -3 -4 -3
-1 -2 -3 1 0 -0 -0 -0 -1 0 0 0 1 1 -0 -2 -2 1 -1 1 3 4 5 4 3 7 5 1 2 5 5 6 8 5 9 8 -2 -2 0 -0 0 -2 -1 -1
-2 -1 -2 0 -0 -0 -0 -0 -1 -1 -0 1 2 0 3 3 -3 -2 0 -2 -0 1 3 4 3 8 7 4 6 3 6 4 5 3 4 0 -2 -2 -2 0 -2 -1 -1 -0
-1 -1 0 -0 -0 -0 -0 -0 0 -0 0 0 -0 0 0 2 1 1 -1 -1 -3 -0 0 4 6 8 6 9 5 3 3 2 6 4 -0 1 0 -1 -1 -1 -1 -1 -1 1
-0 1 0 -0 0 -0 -0 -0 -1 -2 -2 -1 -3 -0 1 1 3 3 2 1 -0 2 1 4 6 8 2 6 2 5 1 2 3 3 1 1 1 1 -1 -0 -1 -3 -1 1
0 0 -0 0 -0 -1 -1 -2 -3 -3 -4 -0 -3 -2 -1 1 2 3 3 2 3 1 5 5 5 2 4 4 4 6 1 2 5 6 1 1 -1 0 1 0 -2 -3 -1 1
0 -0 -0 -0 -1 -1 -1 -1 -2 -3 -2 -2 2 2 -1 -2 -0 3 4 3 2 2 2 4 3 4 4 8 5 -1 -1 1 1 0 -1 -1 -0 -2 -1 1 1 0 0 1
0 0 -0 -0 -0 -0 -1 -2 -2 -4 -3 -3 -0 1 2 1 2 4 5 3 2 2 3 4 3 5 4 7 7 -1 -0 0 0 -0 -1 0 -1 -0 -2 -2 1 -0 1 0
-0 -0 -0 -1 -2 -4 -3 1 -0 -5 -2 -3 1 2 3 4 5 5 5 5 5 4 3 4 4 5 5 6 2 2 1 1 2 1 0 0 -0 -1 0 -1 -1 -0 -0 -0
-2 -2 -2 -3 -3 -4 0 -1 -2 -4 1 1 1 3 5 4 4 5 5 5 6 5 6 5 5 6 6 3 3 2 3 3 3 1 1 0 0 0 -0 0 0 0 -0 -0
-5 -4 -3 -1 -1 -1 1 0 -0 1 1 1 2 1 2 2 3 5 4 3 4 6 6 5 7 6 3 3 3 3 3 2 2 2 1 1 1 0 -0 -0 -0 -0 -1 -1
-2 -1 -0 -0 -2 -0 1 0 1 1 2 1 2 2 1 2 5 5 4 4 2 6 6 7 7 6 2 2 3 2 2 2 2 2 1 1 1 0 -0 -0 -0 -1 -1 -2
0 0 -0 -1 1 1 1 1 1 2 2 3 3 2 1 2 4 4 4 5 4 6 3 7 6 2 0 1 1 1 2 1 1 1 1 1 0 -0 -1 -1 -1 -1 -1 -2
1 -1 1 1 1 2 2 3 3 3 1 1 2 3 3 3 3 3 3 5 6 2 4 2 0 -1 -1 -1 -1 -0 1 1 1 1 1 0 -1 -1 -1 -1 -2 -2 -3 -3
-0 0 0 1 0 0 0 -0 1 -0 -1 0 1 1 2 2 2 1 5 2 2 4 3 0 -2 -2 -2 -2 -2 -1 -2 -1 -1 -1 -1 -2 -2 -3 -3 -3 -3 -3 -4 -4
-2 -2 -1 -1 -2 -4 -4 -4 -2 -2 -1 -0 1 1 1 1 2 1 2 2 1 -1 -2 -3 -4 -3 -4 -4 -4 -4 -3 -3 -4 -4 -3 -4 -4 -4 -4 -4 -4 -4 -5 -5
-5 -7 -5 -6 -4 -5 -6 -6 -5 -4 -1 -0 -0 1 1 -1 -2 -2 -2 -2 -4 -4 -6 -6 -5 -5 -5 -5 -5 -5 -5 -5 -4 -4 -4 -4 -4 -4 -5 -5 -5 -6 -6 -6
-5 -6 -7 -7 -7 -7 -7 -6 -6 -4 -2 -1 -4 -4 -3 -4 -4 -5 -6 -6 -6 -7 -8 -8 -6 -6 -6 -6 -6 -6 -5 -5 -5 -5 -5 -6 -6 -6 -6 -7 -7 -7 -8 -8
Wind_Speed
46 46 46 44 42 39 35 32 7 21 41 18 10 17 32 12 23 19 10 7 6 8 12 16 16 22 16 22 21 20 15 9 8 14 5 2 7 9 10 6 6 3 5 8
51 47 47 49 47 47 44 26 11 25 42 14 13 29 29 27 18 25 14 11 9 6 5 7 17 15 17 16 20 19 13 10 11 10 6 4 8 10 10 6 2 11 7 5
46 47 50 51 54 53 50 21 6 13 34 39 29 29 25 30 29 21 21 11 7 9 6 8 4 12 6 14 21 15 21 13 16 12 13 8 8 12 14 14 7 10 11 13
46 48 53 55 62 59 54 27 9 16 15 20 29 27 24 25 23 32 22 19 15 13 6 5 6 5 7 6 7 8 11 15 16 16 16 15 17 15 14 16 16 13 13 14
50 50 53 63 69 63 49 18 12 28 22 40 32 29 28 29 32 23 24 19 23 13 13 5 2 4 1 6 6 9 8 12 10 12 12 13 15 16 16 18 17 13 17 18
51 52 48 54 72 68 36 29 28 32 21 28 23 24 32 28 25 36 27 24 15 19 20 5 9 8 11 8 2 10 8 9 7 14 10 9 10 14 16 15 13 16 16 16
53 53 53 50 74 73 45 46 28 18 12 17 22 31 31 30 24 26 24 23 18 9 9 2 8 10 6 9 14 11 6 9 6 6 4 8 12 4 16 18 18 17 16 17
55 55 56 51 76 74 47 35 27 23 10 18 22 29 31 28 25 24 27 14 18 13 6 4 5 4 7 6 7 12 12 8 4 5 9 10 5 6 9 12 18 15 18 17
55 54 54 48 74 69 46 37 39 17 15 16 30 20 27 21 19 17 29 18 9 17 4 5 7 8 11 7 5 2 7 7 8 4 7 9 9 13 13 5 16 9 13 14
52 53 51 48 69 68 45 38 37 23 16 18 19 17 21 32 21 16 19 20 11 13 5 4 7 8 10 14 7 6 5 4 11 10 7 6 3 11 15 9 14 3 9 13
46 49 52 61 63 69 48 33 44 23 11 10 5 10 22 27 32 15 19 17 11 8 9 7 7 5 7 11 10 7 9 9 5 7 6 10 15 12 11 12 3 7 10 14
50 46 43 63 61 62 47 33 37 26 8 4 1 8 11 10 36 29 28 17 21 11 8 6 4 2 2 7 10 5 4 7 5 9 6 4 31 18 25 10 9 10 12 14
42 41 54 61 61 57 38 32 29 24 8 3 7 5 13 18 21 25 18 24 16 25 16 5 4 5 5 5 10 10 6 5 4 2 9 12 17 22 11 15 14 10 11 18
34 51 55 57 58 45 42 27 27 24 9 4 7 8 9 17 19 18 24 11 20 9 20 9 4 3 9 6 8 7 8 9 7 7 12 5 14 20 22 15 15 15 13 22
46 51 51 54 54 40 34 30 29 24 10 1 9 9 15 12 15 16 22 24 14 19 6 4 5 6 3 1 2 5 9 8 6 7 14 13 19 13 20 21 24 20 20 23
47 43 52 48 47 42 35 8 20 21 10 2 2 4 13 13 17 16 24 27 25 15 10 6 6 4 6 6 12 14 23 18 20 9 11 12 11 14 10 19 18 19 21 24
54 52 46 44 40 38 15 6 10 30 18 5 3 2 5 17 14 20 20 30 29 24 19 9 14 7 5 3 9 8 21 24 22 23 18 11 19 13 14 15 18 21 19 21
37 35 34 28 28 27 7 4 17 29 16 9 3 3 5 14 7 4 17 17 20 19 10 4 8 4 3 6 9 19 20 12 15 19 19 16 11 12 10 17 20 20 22 23
38 35 33 28 13 9 8 11 21 31 9 6 4 3 0 3 3 5 6 12 4 6 5 6 8 6 8 2 6 5 5 7 9 17 16 17 11 10 11 10 13 21 20 22
37 34 11 5 9 14 17 12 11 8 4 5 2 7 2 7 4 2 4 1 3 4 4 10 4 7 2 4 7 8 7 7 8 6 5 8 11 16 15 17 13 14 19 20
22 6 5 9 18 12 2 5 5 6 3 7 5 9 4 6 2 3 2 3 1 3 4 7 5 4 5 11 7 4 1 2 4 6 7 8 9 15 17 17 18 18 20 22
4 11 19 18 6 4 3 4 3 4 2 5 4 5 15 7 4 2 2 1 1 1 5 4 4 3 14 11 6 5 3 1 1 2 3 5 8 12 17 19 24 25 25 26
14 9 5 3 1 4 4 6 3 2 0 3 6 3 6 3 2 3 2 3 1 1 2 3 4 15 18 12 7 5 2 3 5 8 8 9 13 15 18 20 20 23 24 26
4 3 3 3 2 5 3 4 1 3 3 1 6 4 2 3 2 2 1 2 2 3 4 4 7 24 18 11 5 6 10 9 11 13 14 16 17 19 19 22 23 28 31 28
8 6 4 5 5 8 10 13 11 9 5 1 5 5 5 4 4 4 2 4 5 6 5 6 22 19 13 10 10 12 14 17 19 20 22 22 24 25 27 25 26 27 28 23
5 9 6 14 5 7 12 13 9 11 4 5 7 3 4 6 3 5 7 4 5 4 6 18 19 14 13 15 16 19 20 22 25 25 25 27 28 29 29 26 23 20 18 18
6 5 20 14 4 8 13 14 14 10 1 3 4 6 7 3 4 4 5 4 4 11 13 18 20 18 19 19 22 24 26 28 28 27 26 27 26 24 22 23 20 17 15 14
Wind_Direction
241 235 232 226 217 207 198 192 213 189 184 181 228 224 213 205 209 209 218 233 217 225 192 210 214 211 211 197 189 199 207 228 198 202 112 316 259 232 216 241 223 251 288 264
236 232 228 223 212 200 191 192 180 184 179 184 214 233 227 226 212 209 200 209 214 191 226 214 218 212 201 181 189 201 176 218 208 193 180 187 218 208 230 240 243 237 247 261
234 228 224 219 213 199 191 180 167 171 195 207 199 217 223 215 222 214 212 209 203 196 220 225 214 222 173 192 205 198 184 217 220 224 222 206 203 217 213 214 222 244 231 263
232 227 220 219 210 197 186 186 186 183 187 206 208 208 210 214 205 216 210 215 213 203 200 196 208 218 174 164 192 191 199 225 229 244 249 248 240 233 210 215 230 243 251 264
229 224 213 209 206 196 186 180 179 184 183 199 215 197 214 210 209 196 208 215 203 211 218 206 163 135 214 197 182 194 199 220 210 229 234 232 237 238 239 226 245 249 263 268
224 220 217 209 199 193 186 197 198 186 209 197 203 215 199 219 208 220 218 207 206 213 231 258 323 298 282 290 265 198 195 208 200 239 224 226 244 231 230 227 221 232 253 270
219 214 211 208 195 193 188 196 185 197 200 193 203 212 208 204 211 215 220 220 216 201 170 165 285 306 339 270 241 223 194 197 197 228 187 226 251 223 227 232 238 234 254 269
210 206 205 205 191 192 186 191 190 199 214 195 199 211 207 204 210 215 210 213 220 204 184 205 257 303 300 260 238 217 218 185 176 180 215 259 179 184 186 200 248 239 254 268
198 199 200 201 189 191 182 189 190 201 201 212 205 191 208 197 193 197 210 221 196 149 151 187 208 209 205 249 186 173 196 246 228 172 221 231 244 198 197 191 270 257 248 257
192 190 196 195 187 188 179 185 186 199 209 214 199 199 197 197 189 192 187 202 192 190 168 198 210 217 208 209 216 175 166 190 208 214 238 242 192 162 157 203 258 181 225 233
179 183 187 188 186 181 176 182 190 185 196 165 168 190 211 192 203 185 176 184 204 185 189 207 195 198 214 217 217 177 182 176 178 208 222 239 153 147 203 231 220 214 210 210
175 181 182 180 183 175 179 172 181 191 177 124 98 219 236 210 194 185 176 188 176 186 189 204 205 159 172 210 218 184 214 224 203 210 215 199 182 218 221 211 214 206 204 196
170 177 179 179 177 173 168 163 173 178 178 293 305 192 252 226 205 199 186 202 192 198 195 163 210 201 164 192 224 220 215 174 220 194 235 231 222 222 214 214 208 203 205 191
169 171 174 175 172 171 173 161 163 170 168 211 265 224 262 227 229 217 212 223 212 207 204 219 206 194 206 218 241 215 228 157 208 237 260 268 249 233 224 214 214 218 196 188
161 167 169 166 163 154 154 161 168 175 167 177 227 243 240 255 232 233 219 217 205 210 184 185 216 231 225 244 260 228 189 198 203 228 235 224 263 268 223 216 220 212 192 181
158 155 163 165 165 164 163 142 183 188 182 224 312 291 252 263 236 224 219 215 220 219 225 228 239 180 211 217 234 232 221 219 224 245 261 237 257 276 240 218 214 207 201 196
145 151 151 160 171 178 156 151 168 199 188 167 273 250 230 220 213 218 206 208 210 217 227 235 224 203 211 251 252 239 233 235 237 240 240 247 255 261 243 212 208 203 190 189
149 153 146 142 148 154 177 192 190 173 165 174 237 246 252 194 174 137 185 188 191 204 210 233 230 187 219 245 252 248 249 255 238 241 231 237 263 244 222 203 200 190 183 179
123 126 133 140 149 172 140 113 149 170 175 193 192 232 211 179 123 143 140 174 179 160 196 208 190 196 223 236 249 288 273 243 259 226 225 226 221 229 219 189 182 178 177 168
133 134 118 130 161 182 114 119 166 205 248 238 236 154 291 338 189 125 122 81 153 166 202 159 215 228 107 3 314 296 278 260 249 213 235 215 192 193 200 182 174 177 162 154
135 134 118 144 140 156 187 139 182 173 212 207 224 185 188 282 262 125 207 143 86 195 178 190 188 212 2 344 341 349 298 221 237 241 263 238 233 189 175 166 158 164 160 158
160 119 126 129 174 184 180 195 176 215 245 160 138 202 203 219 223 131 76 124 198 204 131 164 138 35 352 353 359 13 15 62 122 132 143 149 160 167 173 163 166 168 171 172
117 113 108 190 162 205 212 198 180 201 107 153 164 162 154 159 57 73 97 204 176 284 48 70 43 341 347 353 357 15 69 114 117 116 124 139 146 155 170 159 157 151 151 152
80 56 85 360 36 10 345 313 6 343 273 206 139 104 112 120 92 61 191 47 11 64 52 47 354 343 345 0 36 84 88 100 107 111 119 127 132 131 135 133 136 141 138 138
40 1 37 51 29 10 335 332 338 342 311 215 110 74 54 39 70 20 23 61 64 38 24 350 329 347 7 33 63 86 96 101 103 109 107 111 120 121 119 125 129 130 131 134
58 38 358 354 14 349 355 345 315 352 25 81 55 77 79 52 41 53 19 61 47 10 335 330 347 26 48 62 75 85 94 96 98 101 109 114 112 111 112 116 116 120 125 123
39 46 24 11 346 325 324 328 321 348 41 60 62 52 47 47 58 52 21 42 7 339 357 13 41 59 66 75 82 85 89 90 94 100 102 104 109 112 110 105 107 109 109 113
Height
1375 1383 1392 1401 1413 1425 1435 1441 1442 1441 1453 1465 1458 1445 1430 1437 1439 1443 1444 1445 1442 1444 1443 1446 1443 1440 1441 1445 1450 1459 1460 1463 1470 1466 1466 1466 1463 1468 1471 1482 1485 1487 1490 1479
1359 1368 1377 1387 1398 1409 1422 1428 1433 1437 1444 1444 1451 1437 1439 1437 1438 1436 1439 1441 1440 1441 1442 1444 1437 1435 1439 1444 1446 1449 1458 1463 1470 1469 1472 1469 1467 1466 1467 1472 1480 1479 1489 1477
1345 1352 1362 1372 1383 1395 1409 1421 1422 1428 1434 1428 1426 1429 1432 1435 1437 1434 1436 1437 1439 1439 1440 1438 1436 1434 1441 1443 1443 1445 1451 1453 1457 1463 1456 1453 1466 1462 1463 1466 1475 1471 1473 1464
1330 1338 1347 1357 1368 1381 1395 1400 1400 1401 1405 1418 1411 1419 1421 1425 1428 1432 1433 1435 1433 1436 1440 1437 1437 1437 1441 1445 1447 1446 1449 1451 1451 1449 1448 1448 1451 1452 1458 1462 1460 1463 1459 1456
1314 1323 1333 1337 1353 1367 1378 1381 1384 1394 1392 1401 1407 1401 1407 1413 1423 1425 1422 1425 1431 1433 1434 1432 1433 1438 1439 1435 1446 1444 1445 1447 1449 1453 1449 1451 1450 1447 1447 1451 1450 1451 1453 1450
1298 1309 1319 1329 1336 1353 1360 1373 1379 1383 1382 1392 1401 1398 1399 1409 1418 1423 1423 1425 1426 1431 1433 1434 1439 1441 1443 1445 1443 1443 1444 1444 1452 1453 1451 1452 1459 1452 1446 1446 1447 1447 1449 1442
1282 1295 1307 1320 1324 1338 1353 1365 1370 1374 1371 1383 1386 1397 1402 1402 1410 1421 1425 1425 1427 1431 1436 1436 1440 1441 1441 1440 1439 1441 1443 1443 1446 1450 1468 1466 1434 1436 1436 1439 1437 1437 1439 1436
1267 1283 1297 1310 1316 1331 1349 1359 1365 1370 1374 1374 1382 1393 1397 1404 1410 1416 1421 1426 1426 1431 1435 1439 1444 1443 1438 1436 1437 1438 1437 1439 1447 1454 1450 1433 1435 1438 1438 1438 1431 1430 1430 1431
1256 1273 1289 1304 1312 1327 1344 1353 1364 1371 1374 1365 1377 1387 1394 1399 1402 1416 1419 1424 1427 1429 1435 1434 1435 1434 1439 1433 1436 1439 1439 1441 1437 1452 1442 1445 1423 1422 1429 1432 1428 1424 1427 1428
1251 1268 1283 1298 1308 1323 1339 1352 1362 1371 1371 1371 1375 1382 1389 1395 1397 1404 1413 1422 1424 1426 1430 1432 1428 1427 1419 1425 1432 1440 1439 1441 1439 1437 1436 1421 1417 1422 1428 1438 1425 1421 1422 1425
1251 1267 1282 1293 1307 1323 1337 1349 1359 1367 1371 1373 1377 1379 1385 1389 1394 1397 1403 1418 1420 1422 1424 1424 1418 1422 1420 1415 1413 1423 1424 1429 1435 1432 1438 1433 1418 1425 1421 1412 1415 1417 1419 1421
1255 1267 1280 1294 1308 1325 1337 1348 1358 1365 1370 1374 1376 1378 1384 1384 1389 1392 1397 1393 1405 1409 1414 1415 1409 1418 1424 1412 1416 1414 1422 1412 1410 1414 1409 1403 1406 1403 1404 1408 1410 1412 1415 1418
1258 1270 1281 1296 1311 1325 1336 1346 1354 1364 1371 1376 1379 1381 1386 1383 1385 1388 1393 1395 1398 1401 1404 1409 1409 1409 1411 1414 1406 1401 1408 1412 1412 1411 1398 1401 1402 1402 1402 1404 1407 1408 1410 1414
1263 1275 1287 1302 1317 1327 1336 1346 1355 1366 1375 1379 1378 1376 1378 1380 1384 1385 1387 1392 1397 1399 1403 1403 1405 1403 1404 1401 1398 1400 1396 1407 1402 1398 1396 1400 1398 1397 1398 1400 1402 1403 1406 1409
1271 1283 1296 1309 1318 1329 1339 1351 1359 1366 1374 1375 1376 1375 1377 1379 1379 1380 1384 1389 1392 1396 1399 1401 1401 1397 1403 1403 1401 1394 1394 1393 1397 1390 1387 1389 1388 1391 1393 1395 1395 1398 1401 1406
1282 1293 1305 1313 1322 1332 1344 1356 1360 1364 1373 1377 1375 1374 1371 1372 1374 1377 1380 1385 1389 1392 1393 1395 1394 1393 1397 1395 1385 1382 1383 1384 1385 1384 1385 1385 1386 1390 1388 1390 1393 1396 1399 1403
1293 1301 1311 1321 1330 1339 1350 1355 1357 1365 1373 1379 1377 1367 1366 1368 1370 1373 1376 1380 1385 1391 1394 1390 1389 1391 1391 1389 1380 1375 1377 1379 1379 1379 1381 1381 1380 1383 1384 1382 1389 1392 1396 1400
1304 1313 1323 1332 1340 1348 1351 1353 1354 1362 1374 1378 1374 1368 1364 1361 1359 1361 1369 1374 1381 1385 1386 1387 1385 1387 1389 1380 1375 1375 1375 1375 1375 1376 1376 1375 1378 1381 1383 1379 1383 1390 1392 1396
1316 1324 1332 1339 1345 1348 1350 1351 1355 1361 1368 1368 1368 1362 1354 1357 1358 1360 1364 1370 1374 1376 1377 1379 1381 1380 1374 1370 1373 1372 1373 1373 1373 1372 1373 1373 1372 1380 1384 1382 1386 1387 1393 1395
1325 1332 1338 1344 1346 1348 1351 1359 1361 1363 1360 1358 1356 1359 1358 1360 1358 1359 1363 1364 1369 1370 1373 1375 1374 1366 1373 1375 1375 1373 1372 1371 1372 1372 1374 1374 1369 1371 1378 1377 1386 1392 1391 1398
1331 1335 1340 1344 1349 1353 1353 1356 1358 1358 1357 1355 1352 1353 1360 1361 1356 1355 1360 1359 1367 1363 1363 1365 1365 1364 1377 1377 1375 1373 1372 1371 1371 1370 1370 1370 1370 1372 1374 1381 1380 1389 1392 1400
1333 1336 1342 1348 1351 1351 1352 1352 1353 1350 1344 1346 1348 1351 1353 1356 1353 1353 1359 1358 1363 1353 1359 1360 1362 1384 1384 1380 1377 1375 1374 1373 1370 1369 1369 1370 1371 1375 1380 1380 1382 1384 1388 1397
1338 1341 1345 1348 1350 1348 1346 1339 1341 1342 1344 1347 1350 1351 1351 1354 1353 1356 1360 1359 1358 1362 1362 1376 1391 1391 1386 1382 1379 1377 1375 1373 1372 1371 1371 1373 1375 1378 1384 1382 1386 1387 1394 1402
1341 1344 1347 1348 1348 1350 1347 1348 1349 1348 1346 1344 1345 1348 1349 1353 1356 1359 1357 1365 1364 1363 1371 1388 1396 1393 1389 1385 1383 1380 1378 1377 1376 1376 1375 1377 1381 1383 1387 1386 1389 1396 1403 1409
1348 1350 1352 1356 1360 1359 1357 1350 1344 1346 1346 1345 1345 1348 1350 1354 1361 1367 1365 1367 1379 1390 1400 1404 1402 1396 1393 1391 1388 1385 1384 1382 1382 1384 1383 1387 1391 1394 1395 1400 1404 1407 1411 1418
1360 1367 1367 1366 1364 1363 1359 1355 1353 1348 1345 1345 1347 1352 1357 1367 1374 1378 1387 1387 1406 1414 1417 1412 1405 1403 1400 1397 1395 1392 1390 1389 1388 1390 1395 1398 1399 1401 1405 1409 1413 1417 1421 1424
1370 1377 1379 1376 1373 1371 1366 1360 1355 1349 1349 1351 1355 1365 1378 1379 1385 1400 1409 1416 1422 1423 1420 1415 1411 1408 1405 1403 1401 1399 1397 1397 1399 1402 1405 1406 1409 1411 1413 1416 1421 1425 1427 1429